Wind_Speed
61 62 64 62 61 59 59 60 57 54 51 54 53 53 55 58 51 47 50 54 54 63 64 59 53 55 47 45 35 29 27 25 31 37 33 33 49 56 59 60 60 57 55
62 66 65 64 65 65 68 62 55 54 54 55 57 58 59 60 65 58 56 61 62 59 62 61 65 63 53 52 42 40 36 38 33 46 36 35 33 46 59 59 60 61 59
66 67 67 67 68 72 69 63 58 54 54 55 56 57 59 61 62 70 65 69 70 69 63 65 66 66 60 57 50 55 53 50 47 40 51 45 42 41 48 57 58 60 63
72 73 74 75 79 73 69 67 67 68 67 65 64 63 62 61 60 62 66 71 78 77 74 69 66 66 66 64 65 57 59 57 59 54 45 50 49 49 52 50 57 59 61
75 75 76 81 74 72 71 72 72 72 71 71 71 71 69 67 67 66 70 69 77 82 84 65 67 67 71 69 73 64 56 54 56 49 46 47 52 54 53 52 48 53 58
76 78 81 76 74 77 78 77 74 69 67 68 69 67 69 72 72 70 61 70 70 77 78 79 71 70 74 75 73 78 71 69 62 52 54 51 54 53 50 46 39 41 55
77 82 77 74 76 77 77 73 72 69 68 66 64 66 66 70 73 72 74 73 71 67 69 75 76 79 78 72 77 77 71 75 65 62 62 58 56 54 50 48 43 40 42
83 78 75 77 77 76 73 73 71 67 60 56 50 48 45 49 58 64 69 68 66 69 74 77 79 80 80 79 71 74 74 74 67 66 66 61 56 57 59 58 56 53 52
79 76 78 78 76 74 74 72 66 57 51 45 40 38 35 35 37 41 50 57 59 62 67 70 71 71 73 76 77 75 81 77 71 70 57 57 53 54 57 56 53 53 57
76 76 78 76 74 73 70 65 56 44 38 37 36 34 34 38 39 39 38 41 50 55 56 57 54 53 54 55 53 51 47 50 48 49 48 44 47 47 45 47 49 49 54
74 76 75 73 72 70 68 57 43 34 33 30 30 32 30 30 27 27 28 30 33 34 34 31 31 34 35 38 37 39 38 36 35 31 33 34 36 37 41 41 42 43 36
75 74 71 72 70 68 62 49 38 30 28 30 29 26 24 23 19 22 19 19 19 20 18 17 20 23 24 24 25 28 33 29 29 33 34 35 37 37 32 33 35 31 29
75 72 69 71 68 65 56 43 30 27 25 24 19 20 16 21 20 15 7 8 7 2 3 4 9 13 15 17 18 21 25 26 27 30 32 32 31 29 30 29 31 28 29
73 68 68 69 65 63 53 36 27 26 24 15 12 12 14 15 13 7 7 6 8 3 5 3 5 8 15 19 21 24 26 28 30 29 25 28 30 32 31 31 30 32 32
70 66 67 68 63 61 53 36 25 22 20 12 10 10 13 13 12 11 7 6 8 8 10 11 13 13 13 17 21 22 25 25 27 29 29 28 28 26 26 30 28 31 31
66 66 68 66 61 57 55 42 20 21 16 9 4 10 17 16 11 9 10 11 12 12 14 17 18 20 22 22 23 27 28 29 29 29 28 24 22 24 28 28 30 34 29
66 68 69 64 60 55 54 42 32 14 15 11 2 10 15 19 15 9 10 10 10 12 12 13 17 18 21 24 25 28 29 25 27 32 34 28 23 27 28 28 30 41 37
68 69 67 62 59 53 52 44 32 23 16 20 12 4 14 15 15 15 12 11 11 7 6 9 12 13 14 20 26 25 31 30 28 24 27 30 28 30 28 31 31 30 41
72 71 67 62 58 54 53 45 31 23 21 29 26 14 11 15 17 20 19 13 13 10 12 9 10 10 10 14 24 26 27 26 26 23 28 29 32 33 32 38 37 31 29
75 72 68 64 60 56 55 45 33 24 26 26 33 23 20 16 16 24 25 21 19 17 16 16 11 10 9 11 16 21 22 19 22 22 27 32 33 30 32 37 46 42 37
75 72 70 67 64 61 57 42 35 30 24 29 38 36 28 34 27 23 25 20 25 22 21 20 19 17 14 12 19 25 26 25 23 21 29 34 38 33 34 31 38 51 44
73 74 73 71 67 63 52 40 35 35 34 30 33 47 45 39 40 42 39 36 29 30 27 24 22 24 23 20 15 22 32 34 30 29 36 40 38 38 36 34 33 38 53
78 78 74 69 66 57 48 41 36 35 38 39 36 38 50 51 49 42 38 44 42 40 36 35 36 32 28 26 24 19 24 30 31 32 33 35 41 44 42 40 38 40 42
82 79 73 68 61 54 48 42 38 36 38 41 45 44 45 48 54 53 50 46 44 47 49 45 41 35 36 33 30 30 27 28 32 37 37 37 39 40 41 42 43 43 41
80 75 68 64 57 50 45 42 39 36 36 40 45 48 51 50 51 53 55 54 52 53 49 48 46 44 42 38 36 38 36 33 33 32 34 36 39 41 43 42 43 44 44
76 69 64 56 51 48 43 40 39 38 38 39 41 46 49 53 57 58 57 59 60 61 58 59 54 52 51 48 45 45 43 41 38 36 34 34 36 38 38 42 45 46 48
Wind_Direction
323 324 322 318 318 315 314 311 305 300 291 283 277 272 270 259 256 258 254 250 249 259 261 259 266 266 261 259 260 252 251 267 284 286 275 266 258 254 251 250 250 249 249
321 319 318 317 315 314 314 310 303 297 290 284 281 277 270 263 251 254 246 247 252 257 256 260 264 258 263 251 257 248 252 255 273 281 284 281 273 261 251 247 247 248 247
317 317 317 317 316 315 313 310 304 297 290 284 278 275 271 267 261 254 250 248 252 251 259 260 266 263 256 258 255 246 260 259 265 273 276 276 280 272 259 248 245 245 246
320 321 322 320 318 316 312 309 306 304 300 294 287 279 273 268 263 260 255 248 247 248 250 258 256 256 255 256 258 261 263 259 265 276 270 272 274 280 267 255 244 242 244
322 321 319 318 316 313 311 308 305 301 298 294 289 284 277 270 265 259 254 250 247 246 246 251 251 250 253 254 255 257 263 266 273 267 275 275 276 268 264 257 248 241 243
321 320 319 318 316 314 311 310 307 303 299 294 289 283 279 274 268 260 253 247 246 247 247 252 253 250 254 252 253 257 263 267 269 268 273 277 272 267 260 257 241 243 238
319 320 319 317 314 313 312 310 307 306 301 296 290 286 280 275 269 263 259 255 253 253 251 251 253 255 255 260 256 256 258 261 267 267 273 277 266 257 253 250 244 244 248
321 321 318 317 317 316 315 313 312 308 303 300 297 295 291 283 274 270 262 258 257 256 254 253 254 257 259 261 262 259 256 259 267 270 276 273 259 251 247 247 248 250 253
322 321 320 320 320 319 318 317 314 309 304 302 295 291 283 283 279 278 270 261 255 254 255 255 255 256 257 260 264 270 267 268 270 265 263 262 250 250 247 249 251 252 254
322 321 322 322 322 322 322 320 314 310 304 300 296 297 292 287 288 287 282 273 266 265 265 262 261 260 259 261 261 266 259 250 248 249 249 249 249 251 250 251 256 258 260
321 324 323 324 325 325 326 323 313 305 300 309 305 308 310 312 301 297 290 279 274 272 269 263 256 257 258 255 252 249 239 244 244 235 235 233 241 251 254 252 256 259 250
323 325 325 327 328 329 329 324 311 300 302 316 317 325 323 327 315 310 304 293 282 273 266 259 255 249 246 240 232 229 227 226 229 233 237 247 248 256 252 254 250 241 229
325 325 326 328 329 331 330 324 309 299 306 318 333 336 333 340 330 324 357 18 358 326 188 217 240 232 228 210 213 216 222 228 234 241 245 251 245 251 257 247 231 227 219
324 324 326 329 330 332 332 325 300 298 300 308 327 339 339 328 323 325 313 14 323 347 284 239 253 241 226 219 218 221 230 238 240 253 249 243 249 256 254 229 223 218 208
323 323 328 330 330 332 335 332 298 295 295 287 295 332 347 333 311 309 294 291 269 279 271 273 258 240 226 218 220 227 234 241 239 245 248 249 252 249 230 213 217 213 205
322 325 328 329 329 332 335 331 307 286 289 249 320 339 317 314 302 291 285 280 284 282 271 265 260 252 243 239 233 232 231 230 234 230 231 241 243 222 201 208 203 186 186
322 325 327 327 327 329 334 328 320 261 265 234 229 315 298 282 306 279 288 276 273 271 267 262 258 251 241 231 224 224 228 232 239 238 235 231 232 201 202 208 207 195 196
321 323 324 325 325 325 330 328 319 287 240 224 218 285 282 286 292 284 270 276 279 259 255 270 265 262 250 228 217 213 227 231 228 231 230 221 223 204 212 207 201 208 209
321 322 323 323 323 323 324 321 311 286 258 223 225 219 250 269 278 277 263 256 240 233 254 278 300 274 261 236 227 226 230 230 230 240 234 239 214 210 213 202 200 205 215
320 319 320 321 319 318 319 314 301 283 252 240 228 232 225 227 253 266 267 249 234 236 247 263 271 287 284 248 229 229 232 235 235 239 230 209 205 212 216 212 205 206 211
317 317 317 317 316 315 315 305 296 277 266 244 231 225 229 230 230 252 256 251 245 245 243 251 258 261 272 275 235 218 220 220 231 235 218 214 207 207 216 216 215 212 218
317 316 315 315 314 314 310 300 289 275 258 247 242 229 233 237 235 238 250 252 253 254 244 244 256 255 255 264 265 231 221 222 228 207 236 220 223 220 219 222 228 224 217
317 318 317 315 314 312 307 297 289 276 261 249 240 241 235 235 235 239 247 251 248 247 244 257 261 260 254 251 249 247 233 231 231 231 227 224 225 230 233 236 239 236 232
318 317 316 315 312 309 306 299 289 279 265 254 245 238 239 241 239 237 237 242 247 250 255 255 254 254 248 243 242 243 242 238 237 236 234 232 232 231 231 235 236 235 233
317 317 316 314 311 307 302 296 290 280 270 260 254 249 242 239 241 239 237 240 237 242 248 252 252 249 249 242 244 241 237 237 236 235 234 232 233 235 235 233 232 231 229
317 316 315 312 310 307 303 297 290 284 276 268 261 256 253 249 243 240 239 238 239 239 241 243 244 243 245 246 245 242 240 235 232 234 233 235 234 233 236 236 234 232 230
Height
10890 10882 10875 10868 10862 10854 10849 10840 10831 10824 10820 10815 10811 10809 10806 10807 10808 10807 10809 10807 10808 10805 10804 10805 10809 10811 10815 10814 10817 10816 10815 10817 10814 10811 10813 10814 10821 10825 10826 10829 10835 10838 10843
10878 10869 10862 10853 10845 10837 10828 10822 10816 10808 10801 10796 10791 10788 10784 10784 10785 10789 10788 10789 10791 10787 10786 10788 10789 10790 10795 10795 10798 10802 10802 10801 10805 10799 10801 10802 10803 10807 10812 10814 10816 10822 10827
10867 10857 10846 10837 10827 10818 10807 10799 10794 10790 10784 10779 10774 10769 10765 10761 10762 10766 10767 10766 10768 10771 10770 10769 10769 10772 10775 10775 10779 10783 10784 10787 10790 10791 10784 10786 10787 10790 10793 10796 10799 10804 10810
10844 10832 10821 10810 10802 10793 10786 10777 10770 10762 10756 10752 10748 10744 10742 10740 10740 10740 10742 10745 10747 10750 10750 10749 10751 10752 10756 10757 10759 10760 10763 10769 10771 10774 10773 10771 10769 10772 10776 10778 10780 10786 10792
10824 10815 10805 10795 10785 10775 10767 10759 10750 10740 10732 10724 10718 10712 10709 10711 10710 10712 10712 10718 10720 10723 10728 10729 10729 10730 10731 10734 10738 10739 10742 10749 10753 10756 10756 10755 10752 10754 10758 10761 10764 10768 10776
10808 10799 10788 10776 10764 10753 10742 10732 10723 10715 10707 10697 10688 10683 10678 10676 10676 10680 10680 10682 10688 10697 10701 10703 10706 10707 10708 10710 10717 10720 10724 10729 10733 10738 10737 10736 10734 10736 10742 10744 10747 10751 10760
10794 10783 10770 10760 10749 10737 10722 10710 10700 10689 10679 10670 10661 10654 10648 10643 10642 10645 10648 10656 10666 10671 10674 10676 10680 10684 10686 10691 10694 10699 10706 10707 10713 10718 10719 10720 10717 10720 10727 10729 10732 10738 10745
10779 10765 10753 10742 10729 10715 10702 10689 10677 10666 10655 10647 10640 10634 10627 10620 10616 10616 10620 10631 10641 10644 10645 10650 10656 10660 10666 10669 10674 10678 10683 10687 10692 10698 10698 10699 10700 10703 10708 10713 10717 10723 10730
10759 10747 10734 10722 10709 10695 10681 10668 10655 10645 10636 10630 10625 10621 10616 10608 10604 10602 10602 10606 10613 10616 10620 10627 10633 10640 10644 10649 10655 10659 10664 10665 10670 10672 10675 10677 10681 10686 10690 10697 10701 10706 10710
10743 10730 10717 10705 10692 10679 10666 10652 10638 10630 10624 10620 10614 10611 10605 10599 10595 10591 10590 10590 10593 10598 10603 10608 10614 10620 10623 10628 10633 10638 10640 10643 10646 10651 10655 10661 10666 10671 10676 10679 10683 10687 10690
10731 10717 10703 10690 10677 10664 10649 10637 10627 10620 10616 10612 10607 10601 10595 10589 10584 10582 10580 10579 10580 10581 10584 10590 10597 10601 10604 10609 10613 10618 10625 10628 10634 10641 10645 10649 10653 10658 10661 10665 10668 10670 10674
10717 10705 10690 10677 10664 10651 10637 10625 10617 10612 10609 10605 10599 10594 10589 10585 10581 10577 10575 10572 10572 10573 10577 10581 10586 10590 10593 10596 10601 10607 10614 10620 10627 10632 10636 10639 10642 10646 10648 10652 10655 10659 10666
10703 10690 10678 10666 10653 10641 10628 10617 10609 10605 10603 10599 10594 10590 10587 10586 10581 10576 10573 10572 10572 10572 10575 10579 10583 10585 10589 10592 10597 10601 10607 10614 10620 10623 10627 10629 10632 10635 10638 10642 10647 10651 10657
10692 10680 10668 10655 10642 10631 10620 10611 10603 10599 10597 10594 10591 10588 10585 10583 10581 10578 10576 10575 10574 10575 10577 10579 10581 10583 10586 10590 10593 10596 10602 10607 10611 10614 10617 10620 10623 10626 10629 10633 10638 10645 10651
10680 10669 10656 10644 10633 10621 10611 10605 10596 10594 10591 10589 10587 10585 10582 10580 10578 10576 10575 10575 10575 10575 10576 10577 10579 10581 10583 10585 10588 10592 10596 10600 10604 10606 10609 10611 10615 10617 10619 10625 10631 10637 10644
10667 10656 10645 10633 10623 10613 10602 10593 10591 10586 10585 10584 10583 10581 10579 10577 10575 10573 10573 10572 10572 10572 10571 10571 10572 10574 10576 10579 10581 10584 10590 10593 10595 10598 10602 10605 10608 10610 10614 10620 10626 10632 10638
10654 10644 10633 10623 10614 10605 10596 10587 10580 10582 10579 10578 10578 10578 10575 10573 10573 10571 10570 10570 10569 10568 10567 10566 10565 10566 10568 10570 10574 10576 10580 10584 10588 10591 10595 10599 10602 10605 10610 10616 10621 10627 10632
10640 10632 10622 10613 10604 10596 10589 10582 10576 10573 10573 10573 10572 10572 10570 10568 10568 10567 10567 10565 10564 10563 10563 10562 10562 10562 10562 10564 10568 10572 10574 10579 10583 10585 10587 10592 10596 10600 10604 10610 10616 10622 10627
10625 10615 10607 10600 10592 10585 10578 10573 10568 10565 10564 10565 10564 10563 10565 10563 10562 10561 10561 10561 10561 10561 10561 10560 10559 10559 10558 10558 10561 10565 10569 10573 10576 10579 10581 10585 10589 10593 10598 10604 10609 10615 10620
10609 10600 10592 10585 10578 10571 10566 10559 10556 10555 10554 10554 10554 10555 10556 10556 10556 10553 10554 10555 10555 10555 10556 10556 10557 10556 10555 10555 10556 10559 10563 10566 10571 10573 10575 10579 10582 10587 10591 10596 10601 10606 10612
10592 10584 10576 10569 10561 10554 10548 10543 10541 10540 10541 10542 10542 10543 10544 10545 10545 10544 10545 10545 10548 10548 10549 10549 10551 10552 10553 10552 10552 10555 10559 10561 10563 10566 10569 10573 10576 10580 10584 10589 10593 10598 10603
10578 10568 10559 10549 10541 10535 10529 10526 10524 10522 10524 10525 10526 10528 10530 10531 10532 10534 10534 10536 10538 10539 10540 10542 10543 10544 10546 10547 10547 10548 10551 10553 10556 10560 10560 10566 10569 10575 10578 10581 10586 10591 10594
10559 10550 10540 10531 10522 10515 10510 10507 10505 10504 10504 10507 10509 10510 10513 10515 10517 10520 10522 10523 10527 10526 10527 10531 10533 10535 10536 10539 10540 10540 10542 10544 10548 10550 10553 10556 10559 10564 10568 10571 10576 10580 10583
10541 10530 10519 10510 10503 10497 10492 10489 10487 10486 10486 10487 10490 10492 10494 10496 10499 10503 10507 10510 10509 10511 10513 10518 10521 10523 10524 10527 10530 10532 10533 10534 10536 10538 10542 10545 10548 10552 10556 10559 10563 10568 10572
10522 10511 10502 10492 10485 10480 10476 10472 10469 10468 10468 10469 10469 10472 10474 10476 10479 10481 10485 10489 10493 10496 10497 10500 10505 10509 10510 10514 10516 10518 10521 10524 10526 10528 10530 10532 10536 10540 10542 10546 10550 10554 10560
10501 10493 10486 10477 10469 10463 10459 10456 10454 10452 10451 10451 10451 10452 10453 10455 10458 10460 10463 10467 10470 10475 10478 10482 10486 10490 10494 10497 10501 10504 10507 10510 10513 10516 10518 10521 10524 10527 10530 10533 10537 10541 10546